Mattoon, IL

11:57 PM CDT on October 22, 2019 (GMT -0500)
Coles County Memorial

Weather History for KMTO - May, 2019

Change the Weather History Date:

Sunday, May 19, 2019

  Actual Average Record
Temperature  
Mean Temperature 67 °F 64 °F  
Max Temperature 76 °F 74 °F 90 °F (1962)
Min Temperature 57 °F 54 °F 37 °F (2002)
Degree Days  
Heating Degree Days 0 4  
Month to date heating degree days 112 98  
Since 1 July heating degree days 5499 5360  
Cooling Degree Days 2 3  
Month to date cooling degree days 33 33  
Year to date cooling degree days 38 47  
Growing Degree Days 19 (Base 50)    
Moisture  
Dew Point 60 °F    
Average Humidity 69    
Maximum Humidity 87    
Minimum Humidity 50    
Precipitation  
Precipitation 0.27 in 0.15 in 2.20 in (1989)
Month to date precipitation 1.08 2.88  
Year to date precipitation 10.10 12.86  
Sea Level Pressure  
Sea Level Pressure 29.73 in    
Wind  
Wind Speed 13 mph (SW)    
Max Wind Speed 25 mph    
Max Gust Speed 41 mph    
Visibility 9 miles    
Events Fog , Rain , Thunderstorm    
T = Trace of Precipitation, MM = Missing Value Source: NWS Daily Summary

Daily Weather History Graph

Daily Weather History Graph

Search for Another Location

Airport or City:

Astronomy

May. 19, 2019 Rise Set
Actual Time 5:35 AM CDT 8:03 PM CDT
Civil Twilight 5:05 AM CDT 8:34 PM CDT
Nautical Twilight 4:27 AM CDT 9:12 PM CDT
Astronomical Twilight 3:45 AM CDT 9:55 PM CDT
Moon 9:03 PM CDT (5/19) 6:21 AM CDT (5/19)
Length of Visible Light 15h 29m
Length of Day
14h 27m
Full, 99% of the Moon is Illuminated
May 19
Full
May 26
Last Quarter
Jun 3
New
Jun 10
First Quarter
Jun 17
Full

Hourly Weather History & Observations

Time (CDT) Temp. Dew Point Humidity Pressure Visibility Wind Dir Wind Speed Gust Speed Precip Events Conditions
12:53 AM 75.0 °F 59.0 °F 57% 29.70 in 10.0 mi South 15.0 mph 24.2 mph N/A   Mostly Cloudy
1:53 AM 73.0 °F 61.0 °F 66% 29.68 in 10.0 mi South 15.0 mph 24.2 mph 0.00 in Rain Light Rain
2:53 AM 70.0 °F 62.1 °F 76% 29.66 in 10.0 mi South 13.8 mph 24.2 mph 0.00 in Rain Light Rain
3:53 AM 69.1 °F 61.0 °F 75% 29.67 in 10.0 mi South 11.5 mph - 0.00 in   Partly Cloudy
4:53 AM 68.0 °F 61.0 °F 78% 29.68 in 10.0 mi South 12.7 mph - N/A   Partly Cloudy
5:53 AM 68.0 °F 61.0 °F 78% 29.69 in 10.0 mi South 13.8 mph 29.9 mph N/A   Overcast
6:53 AM 68.0 °F 61.0 °F 78% 29.71 in 10.0 mi South 12.7 mph 24.2 mph 0.00 in   Overcast
7:53 AM 66.0 °F 63.0 °F 90% 29.71 in 10.0 mi South 9.2 mph - 0.00 in   Overcast
8:53 AM 66.0 °F 62.1 °F 87% 29.71 in 10.0 mi South 15.0 mph 26.5 mph 0.00 in Rain Light Rain
9:04 AM 66.9 °F 63.0 °F 87% 29.73 in 10.0 mi South 16.1 mph 27.6 mph 0.00 in Rain Light Rain
9:35 AM 66.9 °F 62.1 °F 84% 29.72 in 10.0 mi South 17.3 mph 31.1 mph 0.00 in Rain Light Rain
9:53 AM 66.9 °F 62.1 °F 84% 29.71 in 10.0 mi SSW 17.3 mph 33.4 mph 0.00 in   Mostly Cloudy
10:12 AM 66.9 °F 61.0 °F 81% 29.72 in 10.0 mi South 17.3 mph 27.6 mph N/A   Scattered Clouds
10:53 AM 68.0 °F 61.0 °F 78% 29.71 in 10.0 mi South 15.0 mph 28.8 mph N/A   Partly Cloudy
11:13 AM 69.1 °F 61.0 °F 75% 29.72 in 10.0 mi South 17.3 mph 25.3 mph N/A   Mostly Cloudy
11:53 AM 70.0 °F 62.1 °F 76% 29.71 in 10.0 mi SSW 19.6 mph 29.9 mph N/A   Overcast
12:53 PM 73.9 °F 62.1 °F 66% 29.70 in 10.0 mi SSW 13.8 mph 33.4 mph N/A   Mostly Cloudy
1:08 PM 73.0 °F 63.0 °F 71% 29.71 in 10.0 mi SSW 21.9 mph 29.9 mph N/A   Mostly Cloudy
1:15 PM 73.9 °F 63.0 °F 68% 29.71 in 10.0 mi SSW 19.6 mph 29.9 mph N/A   Mostly Cloudy
1:25 PM 73.9 °F 62.1 °F 66% 29.71 in 10.0 mi SSW 16.1 mph 28.8 mph N/A   Mostly Cloudy
1:53 PM 75.0 °F 62.1 °F 64% 29.68 in 10.0 mi SSW 19.6 mph 29.9 mph N/A   Mostly Cloudy
2:34 PM 66.0 °F 61.0 °F 84% 29.73 in 4.0 mi WSW 10.4 mph 34.5 mph 0.02 in Rain , Thunderstorm Thunderstorms and Rain
2:36 PM 64.9 °F 61.0 °F 87% 29.72 in 1.2 mi West 15.0 mph 34.5 mph 0.11 in Rain , Thunderstorm Heavy Thunderstorms and Rain
2:43 PM 63.0 °F 60.1 °F 90% 29.70 in 0.5 mi Variable 5.8 mph 40.3 mph 0.27 in Fog , Rain , Thunderstorm Heavy Rain
2:49 PM 64.4 °F 59.0 °F 83% 29.71 in 2.5 mi WSW 12.7 mph 20.7 mph 0.27 in Rain , Thunderstorm Light Thunderstorms and Rain
2:53 PM 64.9 °F 60.1 °F 84% 29.70 in 9.0 mi SW 10.4 mph 20.7 mph 0.27 in Rain , Thunderstorm Light Thunderstorms and Rain
3:13 PM 68.0 °F 63.0 °F 84% 29.70 in 10.0 mi SW 11.5 mph - 0.00 in Thunderstorm Mostly Cloudy
3:16 PM 68.0 °F 63.0 °F 84% 29.71 in 10.0 mi SW 9.2 mph 19.6 mph 0.00 in   Mostly Cloudy
3:53 PM 73.0 °F 62.1 °F 68% 29.69 in 10.0 mi WSW 10.4 mph 23.0 mph 0.00 in   Clear
4:53 PM 75.0 °F 55.0 °F 50% 29.72 in 10.0 mi West 16.1 mph 36.8 mph N/A   Clear
5:53 PM 72.0 °F 54.0 °F 53% 29.75 in 10.0 mi West 15.0 mph 33.4 mph N/A   Clear
6:53 PM 71.1 °F 55.0 °F 57% 29.77 in 10.0 mi WSW 10.4 mph 20.7 mph N/A   Clear
7:53 PM 69.1 °F 55.9 °F 63% 29.80 in 10.0 mi SW 6.9 mph - N/A   Overcast
8:53 PM 68.0 °F 55.9 °F 65% 29.82 in 10.0 mi SW 6.9 mph - N/A   Scattered Clouds
9:53 PM 64.9 °F 55.0 °F 70% 29.86 in 10.0 mi WNW 12.7 mph - N/A   Overcast
10:53 PM 63.0 °F 52.0 °F 67% 29.89 in 10.0 mi WNW 12.7 mph - N/A   Overcast
11:53 PM 61.0 °F 46.9 °F 60% 29.91 in 10.0 mi WNW 17.3 mph 25.3 mph N/A   Overcast